Location: Ibach
(47.0119°N, 8.6438°E)
Time: 05:34:44
(UTC+00:00)

Daily predictions for brighter satellites

Satellite Brightness Start Highest point End
(mag) Time Altitude Azimuth Time Altitude Azimuth Time Altitude Azimuth
Okean 1 Rocket 4.0 00:09:30 45° NE 00:09:30 45° NE 00:12:41 10° NNE
SJ 16-02 2.5 00:09:53 40° NE 00:09:53 40° NE 00:12:56 10° NNE
Okean 2 Rocket 4.3 00:10:41 37° NW 00:10:41 37° NW 00:14:01 10° N
SL-16 R/B 2.1 00:08:22 10° NNW 00:13:48 80° WNW 00:13:48 80° WNW
Cosmos 2263 Rocket 3.9 00:14:58 21° ESE 00:15:07 21° E 00:19:08 10° NE
Meteor 2-13 Rocket 4.4 00:11:10 10° NNW 00:17:15 67° W 00:17:19 67° W
Cosmos 1428 Rocket 4.3 00:12:07 10° N 00:18:26 84° W 00:18:53 77° SSW
Cosmos 2142 Rocket 4.5 00:17:47 66° SE 00:18:28 73° E 00:24:52 10° NNE
MOZ.5/SAFIR/RUBIN 5/SL-8 4.4 00:22:13 50° ENE 00:22:17 50° ENE 00:26:51 10° N
SL-19 R/B 4.5 00:20:54 10° NNE 00:26:37 58° ESE 00:26:52 57° ESE
Cosmos 1937 Rocket 4.4 00:27:08 39° E 00:27:08 39° E 00:31:58 10° NE
Cosmos 990 Rocket 4.2 00:29:47 59° E 00:29:47 59° E 00:34:33 10° NNE
Cosmos 2297 Rocket 2.8 00:28:55 43° WNW 00:29:37 45° NW 00:35:03 10° NNE
Cosmos 158 Rocket 4.0 00:24:56 10° NNW 00:29:59 77° NW 00:29:59 77° NW
ADEOS II 4.2 00:28:43 10° NE 00:31:52 16° E 00:33:36 14° ESE
Cosmos 1455 Rocket 4.2 00:35:30 36° E 00:35:30 36° E 00:39:19 10° NNE
Cosmos 1092 Rocket 4.5 00:30:40 10° NNW 00:36:30 44° W 00:36:34 44° W
Cosmos 2112 Rocket 4.0 00:31:55 10° NNW 00:36:46 77° NW 00:36:46 77° NW
USA 229 DEB 3.6 00:36:45 60° SSE 00:37:25 63° ESE 00:44:11 10° NE
USA 229 3.6 00:36:53 60° SSE 00:37:32 63° ESE 00:44:16 10° NE
UNK 4.4 00:38:59 48° E 00:39:22 50° ENE 00:43:54 10° N
Cosmos 2237 Rocket 4.0 00:38:57 10° NW 00:41:12 17° WNW 00:41:12 17° WNW
Cosmos 2219 4.3 00:41:47 30° WNW 00:43:03 33° NW 00:48:07 10° NNE
Meteor 1-15 Rocket 4.4 00:43:07 58° W 00:43:18 58° WNW 00:48:49 10° N
Cosmos 1898 Rocket 3.5 00:43:57 73° E 00:43:57 73° E 00:49:05 10° NNE
GEOS 3 Rocket 4.4 00:42:14 10° NE 00:47:16 38° ESE 00:47:19 38° ESE
Cosmos 1892 Rocket 3.9 00:43:57 10° N 00:47:51 64° NNE 00:47:51 64° NNE
NOSS 3-1 (A) 3.5 00:48:36 52° SE 00:48:51 53° ESE 00:54:56 10° NE
Meteor 1-24 Rocket 3.4 00:43:34 10° NNW 00:48:59 87° W 00:49:06 85° SSW
IRAS Rocket 4.3 00:49:56 54° SE 00:51:09 72° ENE 00:56:46 10° NNW
Cosmos 1680 Rocket 3.9 00:47:12 10° NNW 00:51:28 49° WNW 00:51:28 49° WNW
Cosmos 1603 4.1 00:48:58 10° NNW 00:54:41 61° ENE 00:57:17 32° SE
Cosmos 1461 3.7 00:55:29 49° NW 00:55:29 49° NW 00:59:48 10° NNE
DELTA 2 DEB (DPAF) 4.3 01:05:02 64° NW 01:05:02 64° NW 01:08:55 10° NNW
Cosmos 1340 Rocket 3.4 01:07:07 53° ENE 01:07:07 53° ENE 01:10:27 10° NNE
CZ-2D R/B 2.2 01:01:35 10° NNE 01:07:06 72° ESE 01:08:00 60° SSE
Cosmos 1758 3.9 01:08:43 52° ENE 01:08:43 52° ENE 01:12:16 10° NNE
SL-16 R/B 2.4 01:09:26 53° S 01:11:02 81° WSW 01:17:20 10° NNW
Timation 1 Rocket 4.2 01:10:12 63° SSW 01:11:15 86° ESE 01:17:15 10° NNE
Cosmos 1943 3.3 01:07:38 10° NNW 01:13:16 71° ENE 01:16:09 29° SE
SL-24 R/B 4.5 01:12:55 63° SSE 01:13:42 79° E 01:19:03 10° N
Cosmos 1626 3.9 01:13:28 10° NNW 01:15:17 24° NW 01:15:17 24° NW
Cosmos 1655 Rocket 4.0 01:11:03 10° NNW 01:17:15 67° W 01:18:26 55° SW
IKONOS-2 4.5 01:18:12 83° NE 01:18:12 83° NE 01:22:23 10° NNW
Cosmos 2227 Rocket 3.8 01:18:31 21° WNW 01:20:36 25° NW 01:25:15 10° N
Cosmos 2292 Rocket 4.3 01:13:59 10° NNW 01:21:00 71° W 01:22:07 57° SSW
Cosmos 1544 Rocket 3.5 01:22:37 79° SE 01:22:47 81° E 01:27:16 10° N
Cosmos 1470 3.0 01:24:19 67° NNW 01:24:19 67° NNW 01:27:52 10° N
IRS-1D 4.2 01:19:08 10° NNE 01:24:06 49° E 01:25:39 37° SSE
Cosmos 1953 3.2 01:23:54 40° ESE 01:24:18 42° E 01:28:09 10° NNE
Meteor 2-5 Rocket 4.5 01:20:14 10° NNW 01:25:04 34° W 01:25:04 34° W
Meteor 1-22 Rocket 4.3 01:25:04 49° W 01:25:39 51° WNW 01:30:55 10° N
NPP 3.6 01:20:29 10° NNE 01:25:55 87° ESE 01:27:05 57° S
Helios 1B rocket 4.3 01:23:16 10° NNW 01:25:58 19° WNW 01:25:58 19° WNW
AQUA 3.7 01:28:51 10° NNE 01:33:39 85° ESE 01:34:26 63° S
Atlas Centaur 2 4.3 01:38:02 14° SSE 01:38:02 14° SSE 01:40:14 10° SE
Exosat Rocket 4.2 01:36:53 39° SSW 01:40:03 82° WNW 01:46:03 10° NNE
Resurs 1-4 Rocket 2.2 01:35:17 10° N 01:40:29 60° WNW 01:41:36 49° WSW
Cosmos 1602 Rocket 3.6 01:38:59 10° N 01:43:21 75° E 01:44:26 49° SSE
Cosmos 2098 Rocket 4.1 01:39:15 10° NNW 01:44:45 53° W 01:46:32 41° SW
NOSS 2-3 (E) 3.8 01:44:49 53° W 01:45:38 64° NW 01:50:46 10° NE
Cosmos 2227 4.2 01:44:00 47° SW 01:45:42 75° WNW 01:51:30 10° NNE
SJ 16-02 3.2 01:46:52 18° WNW 01:47:33 19° NW 01:50:41 10° N
USA 267 4.3 01:42:23 10° E 01:48:31 45° NNE 01:54:39 10° NW
IDEFIX/ARIANE 42P 4.3 01:44:40 10° NE 01:49:03 27° E 01:53:20 10° SSE
Meteor 2-14 Rocket 4.4 01:43:09 10° N 01:49:15 89° E 01:52:41 28° S
NOSS 3-1 (C) 4.0 01:48:09 29° W 01:50:41 47° NW 01:57:03 10° NE
Cosmos 1048 Rocket 4.0 01:51:26 10° NNW 01:56:38 80° ENE 02:01:22 13° SSE
SL-16 R/B 4.2 01:54:39 10° WNW 01:55:37 12° WNW 01:55:37 12° WNW
Cosmos 1908 4.1 01:56:15 33° SE 01:57:33 46° E 02:01:19 10° NNE
Cosmos 2263 Rocket 2.2 01:56:40 41° SW 01:58:31 66° WNW 02:04:04 10° NNE
IRS-P3 4.4 01:53:47 10° NNE 01:59:08 65° ESE 02:01:52 29° S
Cosmos 2298 Rocket 4.0 01:57:57 41° SSW 01:59:54 83° ESE 02:05:17 10° NNE
Cosmos 2228 4.3 01:59:31 18° SSE 02:02:15 37° E 02:06:19 10° NNE
Meteor 1-16 Rocket 4.2 02:01:58 30° S 02:04:43 76° E 02:10:22 10° NNE
Cosmos 372 Rocket 4.1 02:04:37 41° SW 02:06:21 65° WNW 02:11:36 10° NNE
Meteor 1-28 Rocket 3.4 02:06:34 27° SSE 02:08:28 69° ENE 02:12:17 10° N
COBE Rocket 4.1 02:08:32 42° WSW 02:09:13 45° W 02:13:41 10° NNW
SL-08 R/B 3.5 02:05:26 17° SSE 02:09:19 81° ENE 02:14:17 10° NNW
NOSS 2-3 (D) 4.4 02:08:30 32° W 02:10:06 46° NW 02:15:09 10° NNE
ADEOS II 2.0 02:06:53 10° NNE 02:12:10 77° WNW 02:14:32 34° SSW
Cosmos 1626 Rocket 4.0 02:08:38 10° NNW 02:12:42 40° W 02:13:03 39° WSW
Cosmos 1455 Rocket 4.4 02:12:38 23° W 02:13:09 24° WNW 02:16:47 10° NNW
Cosmos 2285 Rocket 4.0 02:10:59 30° SSW 02:14:21 88° ESE 02:20:42 10° NNE
Cosmos 1726 2.6 02:14:19 41° W 02:14:28 41° WNW 02:17:58 10° N
ATLAS CENTAUR R/B 1.2 02:13:46 49° SSW 02:14:47 87° SE 02:18:43 10° NE
CZ-4B R/B 3.6 02:10:25 10° N 02:15:03 54° WNW 02:16:40 36° SW
Cosmos 1553 Rocket 4.1 02:15:29 19° S 02:20:00 75° E 02:26:09 10° NNE
Cosmos 1844 Rocket 3.5 02:17:42 18° S 02:21:34 45° ESE 02:26:51 10° NE
ERS-2 4.5 02:19:32 10° ESE 02:22:33 25° ENE 02:25:35 10° N
GEOS 3 Rocket 4.2 02:20:10 10° NNE 02:25:23 50° NW 02:28:25 24° WSW
Meteor 1-11 4.4 02:19:53 10° N 02:25:39 74° ENE 02:31:18 10° SSE
CBERS-1 4.4 02:23:54 10° N 02:28:50 49° WNW 02:31:09 29° SW
Cosmos 2084 3.6 02:28:47 33° WSW 02:30:37 65° NW 02:35:03 10° NE
Cosmos 1745 Rocket 4.2 02:24:21 10° N 02:30:40 74° E 02:36:50 10° SSE
ARIANE 5 R/B 2.5 02:27:17 10° NNE 02:32:34 88° ESE 02:36:11 21° SSW
NOSS 8 (E) 4.1 02:32:47 49° SW 02:33:32 82° NW 02:36:33 10° NE
Cosmos 1758 Rocket 3.5 02:31:18 10° NNW 02:35:35 61° W 02:38:14 22° S
ERS-1 4.4 02:32:42 10° NNE 02:37:41 82° WNW 02:41:00 21° SSW
SL-08 R/B 4.4 02:33:37 10° NNW 02:39:50 72° W 02:46:04 10° S
NOSS 3-1 (A) 4.4 02:36:02 17° W 02:39:58 39° NW 02:46:12 10° NE
Cosmos 494 Rocket 3.9 02:39:52 10° NNW 02:45:00 64° WSW 02:50:07 10° S
Cosmos 2150 Rocket 4.5 02:42:28 24° WSW 02:45:15 47° WNW 02:50:21 10° NNE
Cosmos 2058 Rocket 3.8 02:41:51 10° S 02:46:11 52° E 02:50:30 10° NNE
CZ-2D R/B 3.8 02:42:39 10° NNW 02:46:35 20° WNW 02:49:18 14° W
H-2A R/B 2.3 02:43:15 10° SSE 02:47:17 65° ENE 02:51:23 10° N
Cosmos 1703 3.9 02:47:25 10° NNW 02:51:04 35° W 02:52:42 24° SW
S3M 4.1 02:45:35 11° S 02:51:51 88° WNW 02:58:17 10° N
CZ-2C R/B 4.1 02:48:57 10° NE 02:53:01 30° E 02:57:07 10° SSE
Cosmos 1825 Rocket 3.7 02:49:56 10° NNW 02:54:07 49° W 02:57:30 15° SSW
SL-16 R/B 4.2 02:54:31 14° W 02:55:35 14° W 02:58:46 10° NW
Landsat 5 3.6 02:52:14 10° SSE 02:56:14 75° ENE 03:00:25 10° N
Cosmos 1943 4.5 02:52:49 10° NW 02:56:42 20° W 02:57:52 18° WSW
Cosmos 1125 Rocket 3.8 02:54:00 21° SW 02:57:28 55° WNW 03:02:40 10° NNE
USA 215 3.4 02:51:51 10° NE 02:58:25 72° SE 03:03:50 16° SW
Cosmos 1953 4.1 02:59:36 16° W 03:00:55 18° WNW 03:03:46 10° NNW
SL-24 R/B 4.4 02:58:15 10° S 03:03:36 76° WSW 03:08:13 10° NNW
Cosmos 1892 4.4 03:00:45 10° N 03:04:19 35° ENE 03:07:51 10° SE
CZ-4B R/B 3.9 03:02:34 10° SE 03:05:12 24° ENE 03:07:47 10° NNE
Cosmos 1953 Rocket 3.7 03:01:12 10° NNW 03:05:37 57° W 03:09:59 10° S
CZ-2D R/B 3.6 03:05:56 10° N 03:09:48 50° WNW 03:12:51 15° SW
Cosmos 1709 Rocket 4.1 03:04:16 10° N 03:10:28 83° E 03:16:35 10° S
Resurs 1-4 Rocket 4.3 03:18:09 10° NW 03:19:15 11° NW 03:20:21 10° WNW
USA 238 DEB 4.3 03:13:55 10° NW 03:21:06 69° NE 03:28:33 10° SE
USA 238 4.3 03:14:02 10° NW 03:21:13 69° NE 03:28:40 10° SE
Cosmos 1606 Rocket 4.4 03:19:24 14° SW 03:22:49 34° WNW 03:26:56 10° N
Atlas Centaur 2 4.1 03:20:39 11° SW 03:24:48 20° S 03:29:57 10° SE
NOSS 2-2 (E) 3.2 03:22:45 14° SW 03:25:45 70° NW 03:29:50 10° NE
NOSS 2-2 (D) 3.1 03:23:29 13° SW 03:26:38 86° NW 03:30:37 10° NE
CENTAUR R/B 4.0 03:19:32 10° NW 03:27:18 57° NE 03:35:53 10° ESE
IDEFIX/ARIANE 42P 3.0 03:23:52 10° N 03:28:49 46° WNW 03:33:47 10° SW
USA 267 3.3 03:24:37 10° SE 03:31:11 89° NE 03:37:46 10° NW
Cosmos 2082 Rocket 4.4 03:27:42 10° NNW 03:32:41 31° NE 03:37:37 10° ESE
Meteor 2-15 Rocket 4.5 03:28:38 10° SSW 03:34:39 66° WNW 03:40:43 10° N
MSX 4.0 03:29:04 10° N 03:34:45 61° WNW 03:40:26 10° SSW
PSLV R/B 3.6 03:31:12 10° NNE 03:35:36 89° E 03:39:56 10° SSW
COSMOS 2406 3.7 03:31:52 10° NNW 03:37:34 69° ENE 03:43:13 10° SE
Cosmos 1825 4.0 03:35:27 10° N 03:38:58 36° ENE 03:42:28 10° SE
Cosmos 2228 4.4 03:36:23 10° SW 03:39:54 23° WNW 03:43:29 10° NNW
Cosmos 2315 Rocket 4.1 03:35:11 10° SSW 03:41:31 75° W 03:47:56 10° N
ADEOS Rocket 4.0 03:34:01 10° SSE 03:41:43 72° ENE 03:49:24 10° N
Cosmos 2263 Rocket 4.2 03:40:21 10° WNW 03:43:34 15° NW 03:46:48 10° N
Cosmos 1844 4.0 03:37:53 10° SW 03:43:35 57° WNW 03:49:16 10° NNE
CZ-2C R/B 3.7 03:45:03 10° N 03:48:24 29° WNW 03:51:40 10° SW
Cosmos 2084 Rocket 4.2 03:45:00 10° NW 03:49:25 63° NE 03:53:53 10° SE
Cosmos 1455 2.8 03:45:49 10° S 03:49:37 61° E 03:53:28 10° NNE
deb Chang Zheng 4 3.8 03:45:43 10° NNE 03:50:05 77° ESE 03:54:27 10° S
